Location: Brede
(50.9167°N, 0.6000°E)
Time: 02:09:09
(UTC+00:00)

Cosmos 1025 Rocket - Pass Details

Date: 08 August 2020
Orbit: 594 x 618 km, 82.5° (Epoch: 25 September)

Event Time Altitude Azimuth Distance (km) Brightness Sun altitude
Rises 01:42:35 0° 341° (NNW) 2,855 7.2 -19.6°
Reaches altitude 10° 01:44:59 10° 331° (NNW) 1,945 6.1 -19.4°
Maximum altitude 01:48:44 30° 270° (W) 1,071 4.0 -19.2°
Enters shadow 01:49:05 30° 261° (W) 1,081 4.0 -19.1°
